Weather History for KBCE - April, 2013

Change the Weather History Date:

Saturday, April 6, 2013

  Actual Average Record
Temperature  
Mean Temperature 44 °F -  
Max Temperature 60 °F 52 °F 68 °F (1960)
Min Temperature 28 °F 22 °F 1 °F (1983)
Degree Days  
Heating Degree Days 22    
Moisture  
Dew Point 21 °F    
Average Humidity 49    
Maximum Humidity 85    
Minimum Humidity 17    
Precipitation  
Precipitation 0.00 in - - ()
Sea Level Pressure  
Sea Level Pressure 29.86 in    
Wind  
Wind Speed 6 mph (WNW)    
Max Wind Speed 23 mph    
Max Gust Speed 30 mph    
Visibility 10 miles    
Events      
Averages and records for this station are not official NWS values.
T = Trace of Precipitation, MM = Missing Value Source: NWS Daily Summary

Daily Weather History Graph

Daily Weather History Graph

Search for Another Location

Airport or City:

Trip Planner

Search our weather history database for the weather conditions in past years. The results will help you decide how hot, cold, wet, or windy it might be!

Date:

Astronomy

Apr. 06, 2013 Rise Set
Actual Time 7:06 AM MDT 7:56 PM MDT
Civil Twilight 6:39 AM MDT 8:22 PM MDT
Nautical Twilight 6:07 AM MDT 8:54 PM MDT
Astronomical Twilight 5:35 AM MDT 9:27 PM MDT
Moon 4:48 AM MDT (4/6) 4:32 PM MDT (4/6)
Length of Visible Light 13h 43m
Length of Day
12h 50m
Waning Crescent, 14% of the Moon is Illuminated
Apr 6
Waning Crescent
Apr 10
New
Apr 18
First Quarter
Apr 25
Full
May 2
Last Quarter

Hourly Weather History & Observations

Time (MDT) Temp. Windchill Dew Point Humidity Pressure Visibility Wind Dir Wind Speed Gust Speed Precip Events Conditions
12:53 AM 39.0 °F 35.7 °F 28.0 °F 65% 29.84 in 10.0 mi NNW 4.6 mph - N/A   Clear
1:53 AM 37.0 °F 34.5 °F 28.0 °F 70% 29.86 in 10.0 mi NE 3.5 mph - N/A   Clear
2:53 AM 32.0 °F - 27.0 °F 82% 29.87 in 10.0 mi Calm Calm - N/A   Clear
3:53 AM 30.9 °F - 26.1 °F 82% 29.86 in 10.0 mi Calm Calm - N/A   Clear
4:53 AM 30.0 °F 22.4 °F 26.1 °F 85% 29.89 in 10.0 mi WNW 8.1 mph - N/A   Clear
5:53 AM 28.9 °F 20.4 °F 25.0 °F 85% 29.91 in 10.0 mi West 9.2 mph - N/A   Clear
6:53 AM 28.9 °F 21.9 °F 25.0 °F 85% 29.92 in 10.0 mi West 6.9 mph - N/A   Clear
7:53 AM 30.9 °F 24.3 °F 26.1 °F 82% 29.94 in 10.0 mi West 6.9 mph - N/A   Clear
8:53 AM 39.0 °F 34.8 °F 28.0 °F 65% 29.92 in 10.0 mi West 5.8 mph - N/A   Clear
9:53 AM 48.9 °F - 28.0 °F 44% 29.88 in 10.0 mi Calm Calm - N/A   Clear
10:53 AM 55.0 °F - 15.1 °F 21% 29.86 in 10.0 mi NNW 6.9 mph - N/A   Clear
11:53 AM 57.0 °F - 16.0 °F 20% 29.86 in 10.0 mi NW 11.5 mph 21.9 mph N/A   Partly Cloudy
12:53 PM 57.0 °F - 17.1 °F 21% 29.84 in 10.0 mi NW 11.5 mph 23.0 mph N/A   Scattered Clouds
1:53 PM 59.0 °F - 14.0 °F 17% 29.82 in 10.0 mi SW 11.5 mph 23.0 mph N/A   Mostly Cloudy
2:53 PM 55.9 °F - 16.0 °F 21% 29.84 in 10.0 mi WNW 9.2 mph 26.5 mph N/A   Overcast
3:53 PM 59.0 °F - 19.9 °F 22% 29.81 in 10.0 mi West 23.0 mph 29.9 mph N/A   Mostly Cloudy
4:53 PM 55.9 °F - 19.0 °F 24% 29.83 in 10.0 mi NW 15.0 mph 21.9 mph N/A   Mostly Cloudy
5:53 PM 57.0 °F - 18.0 °F 22% 29.82 in 10.0 mi West 13.8 mph 26.5 mph N/A   Scattered Clouds
6:53 PM 55.0 °F - 18.0 °F 23% 29.83 in 10.0 mi WNW 12.7 mph 24.2 mph N/A   Clear
7:53 PM 50.0 °F - 18.0 °F 28% 29.86 in 10.0 mi NW 9.2 mph - N/A   Partly Cloudy
8:53 PM 44.1 °F 40.1 °F 17.1 °F 34% 29.86 in 10.0 mi West 6.9 mph - N/A   Clear
9:53 PM 30.9 °F - 19.9 °F 64% 29.88 in 10.0 mi Calm Calm - N/A   Clear
10:53 PM 30.9 °F 27.5 °F 17.1 °F 57% 29.86 in 10.0 mi Variable 3.5 mph - N/A   Clear
11:53 PM 32.0 °F 24.8 °F 16.0 °F 52% 29.83 in 10.0 mi West 8.1 mph - N/A   Clear